Location: Pilipovskiye Korichintsy
(49.1833°N, 27.4667°E)
Time: 22:36:55
(UTC+00:00)

Cosmos 1869 Rocket - Pass Details

Date: 14 July 2020
Orbit: 606 x 632 km, 82.5° (Epoch: 10 August)

Event Time Altitude Azimuth Distance (km) Brightness Sun altitude
Exits shadow 00:27:34 21° 221° (SW) 1,377 4.7 -13.4°
Maximum altitude 00:30:09 46° 285° (WNW) 827 4.1 -13.2°
Drops below altitude 10° 00:34:21 10° 359° (N) 1,974 7.0 -12.8°
Sets 00:36:40 0° 6° (N) 2,887 8.2 -12.6°
